カタログに戻る

STARLINK-4114

運用中通信VLEO
NORAD 53162·PAYLOAD·🇺🇸 United States

打ち上げ Jul 17, 2022 から Cape Canaveral Space Force Station

Loading…

次のパス (今後24時間)

TLE

最新Source: CelesTrak SupGP

元期: Sep 15, 2026, 02:12 UTC

1 53162C 22083AG  26258.09215278 -.00008845  00000+0 -28447-3 0  2581
2 53162  53.1592  22.9593 0001123  93.6635 142.9995 15.31702630    11

AllMySatでSTARLINK-4114をリアルタイム追跡

Download on the App Store